TimeEDT,TemperatureF,Dew PointF,Humidity,Sea Level PressureIn,VisibilityMPH,Wind Direction,Wind SpeedMPH,Gust SpeedMPH,PrecipitationIn,Events,Conditions,WindDirDegrees,DateUTC
12:51 AM,69.1,66.9,93,29.66,10.0,SW,5.8,-,N/A,,Clear,230,2013-07-24 04:51:00
1:51 AM,70.0,66.0,87,29.66,10.0,WSW,4.6,-,N/A,,Clear,240,2013-07-24 05:51:00
2:51 AM,69.1,64.9,87,29.67,10.0,WSW,4.6,-,N/A,,Clear,250,2013-07-24 06:51:00
3:51 AM,70.0,63.0,78,29.66,10.0,WSW,3.5,-,N/A,,Clear,250,2013-07-24 07:51:00
4:51 AM,68.0,63.0,84,29.67,10.0,WSW,8.1,-,N/A,,Clear,240,2013-07-24 08:51:00
5:51 AM,70.0,62.1,76,29.69,10.0,NW,3.5,-,N/A,,Clear,320,2013-07-24 09:51:00
6:51 AM,69.1,63.0,81,29.70,10.0,WSW,3.5,-,N/A,,Clear,250,2013-07-24 10:51:00
7:51 AM,73.0,63.0,71,29.72,10.0,WNW,3.5,-,N/A,,Clear,300,2013-07-24 11:51:00
8:51 AM,73.9,64.0,71,29.75,10.0,NW,6.9,-,N/A,,Mostly Cloudy,310,2013-07-24 12:51:00
9:47 AM,75.2,64.4,69,29.77,10.0,NNW,9.2,-,N/A,,Mostly Cloudy,330,2013-07-24 13:47:00
9:51 AM,75.0,64.9,71,29.76,10.0,NNW,12.7,-,N/A,,Mostly Cloudy,330,2013-07-24 13:51:00
10:51 AM,73.0,62.1,68,29.80,10.0,North,11.5,-,N/A,,Mostly Cloudy,350,2013-07-24 14:51:00
11:13 AM,73.4,62.6,69,29.80,10.0,WNW,10.4,-,N/A,,Scattered Clouds,300,2013-07-24 15:13:00
11:51 AM,75.0,62.1,64,29.80,10.0,NW,8.1,-,N/A,,Partly Cloudy,320,2013-07-24 15:51:00
12:51 PM,77.0,60.1,56,29.81,10.0,NNW,11.5,-,N/A,,Mostly Cloudy,330,2013-07-24 16:51:00
1:51 PM,75.9,60.1,58,29.81,10.0,NNW,5.8,-,N/A,,Overcast,340,2013-07-24 17:51:00
2:51 PM,77.0,59.0,54,29.82,10.0,NW,6.9,-,N/A,,Overcast,320,2013-07-24 18:51:00
3:51 PM,79.0,59.0,50,29.81,10.0,Variable,6.9,-,N/A,,Clear,0,2013-07-24 19:51:00
4:51 PM,80.1,59.0,48,29.81,10.0,North,9.2,-,N/A,,Mostly Cloudy,350,2013-07-24 20:51:00
5:51 PM,78.1,57.0,48,29.83,10.0,North,12.7,18.4,N/A,,Mostly Cloudy,10,2013-07-24 21:51:00
6:51 PM,75.9,55.9,50,29.84,10.0,North,15.0,18.4,N/A,,Overcast,350,2013-07-24 22:51:00
7:51 PM,71.1,53.1,53,29.88,10.0,North,12.7,-,N/A,,Partly Cloudy,360,2013-07-24 23:51:00
8:51 PM,68.0,52.0,56,29.91,10.0,North,8.1,-,N/A,,Mostly Cloudy,10,2013-07-25 00:51:00
9:51 PM,63.0,53.1,70,29.95,10.0,North,5.8,-,N/A,,Clear,350,2013-07-25 01:51:00
10:51 PM,61.0,52.0,72,29.97,10.0,North,3.5,-,N/A,,Clear,10,2013-07-25 02:51:00
11:51 PM,61.0,51.1,70,29.97,10.0,NNE,5.8,-,N/A,,Clear,20,2013-07-25 03:51:00